Rae Point,

10:05 PM MDT on August 20, 2017 (GMT -0600)
Rae Point

Weather History for CZRP - March, 2014

Change the Weather History Date:

Thursday, March 20, 2014

  Actual Average Record
Temperature  
Mean Temperature -10 °F -  
Max Temperature -3 °F - - ()
Min Temperature -15 °F - - ()
Degree Days  
Heating Degree Days 76    
Moisture  
Dew Point -16 °F    
Average Humidity 77    
Maximum Humidity 87    
Minimum Humidity 65    
Precipitation  
Precipitation 0.00 in - - ()
Sea Level Pressure  
Sea Level Pressure 30.48 in    
Wind  
Wind Speed 23 mph ()    
Max Wind Speed 33 mph    
Max Gust Speed 29 mph    
T = Trace of Precipitation, MM = Missing Value Source: Averaged Metar Reports

Daily Weather History Graph

Daily Weather History Graph

Search for Another Location

Airport or City:

Trip Planner

Search our weather history database for the weather conditions in past years. The results will help you decide how hot, cold, wet, or windy it might be!

Date:

Astronomy

Mar. 20, 2014 Rise Set
Actual Time 6:58 AM MDT 7:25 PM MDT
Civil Twilight 5:34 AM MDT 8:50 PM MDT
Nautical Twilight 3:31 AM MDT 10:57 PM MDT
Astronomical Twilight Sun does not set Sun does not set
Moon No Moon Rise No Moon Set
Length of Visible Light 15h 16m
Length of Day
12h 27m
Waning Gibbous, 83% of the Moon is Illuminated
Mar 20
Waning Gibbous
Mar 23
Last Quarter
Mar 30
New
Apr 7
First Quarter
Apr 15
Full

Hourly Weather History & Observations

Time (MDT) Temp. Windchill Dew Point Humidity Pressure Visibility Wind Dir Wind Speed Gust Speed Precip Events Conditions
12:00 AM -15 °F - -19 °F 69% 30.42 in - WNW 29.9 mph - -  
12:00 AM -15.0 °F -46.2 °F -19.5 °F 80% 30.42 in - WNW 29.9 mph - N/A   Unknown
1:00 AM -13.4 °F -44.0 °F -18.2 °F 79% 30.43 in - WNW 29.9 mph - N/A   Unknown
2:00 AM -15.3 °F -47.9 °F -20.2 °F 79% 30.44 in - WNW 33.4 mph - N/A   Unknown
3:00 AM -14.6 °F -46.1 °F -17.5 °F 87% 30.46 in - WNW 31.1 mph - N/A   Unknown
4:00 AM -15.3 °F -45.7 °F -20.2 °F 79% 30.48 in - West 27.6 mph - N/A   Unknown
5:00 AM -14.1 °F -44.9 °F -18.8 °F 79% 30.48 in - WNW 29.9 mph - N/A   Unknown
8:00 AM -12.6 °F -40.1 °F -17.3 °F 80% 30.51 in - West 23.0 mph - N/A   Unknown
9:00 AM -11.4 °F -37.9 °F -16.1 °F 80% 30.53 in - WNW 21.9 mph - N/A   Unknown
10:00 AM -10.8 °F -35.3 °F -15.3 °F 80% 30.54 in - West 18.4 mph - N/A   Unknown
11:00 AM -8.5 °F -35.1 °F -15.0 °F 73% 30.52 in - WNW 24.2 mph - N/A   Unknown
12:00 PM -9 °F - -14 °F 68% 30.50 in - WNW 29.9 mph - -  
12:00 PM -9.4 °F -38.6 °F -13.9 °F 81% 30.50 in - WNW 29.9 mph - N/A   Unknown
1:00 PM -8.1 °F -34.6 °F -12.6 °F 81% 30.51 in - West 24.2 mph - N/A   Unknown
2:00 PM -8.7 °F -33.1 °F -13.5 °F 79% 30.53 in - WSW 19.6 mph - N/A   Unknown
3:00 PM -7.8 °F -33.1 °F -12.8 °F 79% 30.53 in - West 21.9 mph 28.8 mph N/A   Unknown
4:00 PM -8.9 °F -36.5 °F -13.9 °F 79% 30.51 in - West 26.5 mph - N/A   Unknown
5:00 PM -6.7 °F -32.7 °F -13.4 °F 73% 30.50 in - West 24.2 mph - N/A   Unknown
6:00 PM -7 °F - -13 °F 65% 30.49 in - West 15.0 mph - -  
6:00 PM -7.4 °F -28.9 °F -12.6 °F 78% 30.49 in - West 15.0 mph - N/A   Unknown
7:00 PM -9.6 °F -24.5 °F -15.3 °F 76% 30.47 in - SSW 6.9 mph - N/A   Unknown
8:00 PM -9.9 °F -31.3 °F -15.5 °F 76% 30.44 in - WSW 13.8 mph - N/A   Unknown
11:00 PM -3.8 °F -28.4 °F -10.1 °F 74% 30.33 in - WSW 23.0 mph - N/A   Unknown